| time (UTC) | temp C | wind direction | speed KPH | gust KPH | rain 1hr cm | rain 24hr cm | rain mn cm | humidity % | barometer mb |
| 20260502183426 | -17 | 29 | 17.7 | 25.7 | 0.00 | 3.38 | 0.00 | 1017.0 | |
| 20260502183140 | -17 | 50 | 17.7 | 25.7 | 0.00 | 3.38 | 0.00 | 1017.0 | |
| 20260502182401 | -17 | 45 | 16.1 | 25.7 | 0.00 | 3.38 | 0.00 | 1017.1 | |
| 20260502181856 | -17 | 53 | 17.7 | 25.7 | 0.00 | 3.38 | 0.00 | 1017.1 | |
| 20260502181346 | -17 | 59 | 19.3 | 25.7 | 0.00 | 3.38 | 0.00 | 1017.2 | |
| 20260502180840 | -17 | 10 | 17.7 | 24.1 | 0.00 | 3.38 | 0.00 | 1017.3 | |
| 20260502180334 | -17 | 15 | 17.7 | 24.1 | 0.00 | 3.38 | 0.00 | 1017.3 | |
| 20260502170235 | -17 | 10 | 14.5 | 22.5 | 0.00 | 3.38 | 0.00 | 1018.0 | |
| 20260502164213 | -17 | 10 | 14.5 | 22.5 | 0.00 | 3.38 | 0.00 | 1018.1 | |
| 20260502163702 | -17 | 19 | 16.1 | 24.1 | 0.00 | 3.38 | 0.00 | 1018.1 | |
| 20260502163200 | -17 | 10 | 16.1 | 24.1 | 0.00 | 3.40 | 0.00 | 1018.2 | |
| 20260502162650 | -17 | 10 | 16.1 | 22.5 | 0.00 | 3.43 | 0.00 | 1018.0 | |
| 20260502162145 | -17 | 45 | 16.1 | 22.5 | 0.00 | 3.43 | 0.00 | 1018.0 | |
| 20260502161642 | -17 | 30 | 14.5 | 22.5 | 0.00 | 3.43 | 0.00 | 1018.1 | |
| 20260502161136 | -17 | 19 | 14.5 | 22.5 | 0.00 | 3.43 | 0.00 | 1018.0 | |
| 20260502160634 | -17 | 38 | 14.5 | 20.9 | 0.00 | 3.43 | 0.00 | 1018.0 | |
| 20260502160130 | -17 | 359 | 14.5 | 20.9 | 0.00 | 3.43 | 0.00 | 1018.0 | |
| 20260502152023 | -17 | 15 | 16.1 | 24.1 | 0.00 | 3.43 | 0.00 | 1017.5 | |
| 20260502151746 | -17 | 54 | 16.1 | 24.1 | 0.00 | 3.43 | 0.00 | 1017.4 | |
| 20260502151236 | -17 | 55 | 14.5 | 22.5 | 0.00 | 3.43 | 0.00 | 1017.5 | |
| 20260502150456 | -17 | 46 | 14.5 | 22.5 | 0.00 | 3.43 | 0.00 | 1017.4 | |
| 20260502130615 | -17 | 10 | 16.1 | 24.1 | 0.00 | 3.43 | 0.00 | 1016.4 | |
| 20260502130106 | -17 | 10 | 14.5 | 24.1 | 0.00 | 3.43 | 0.00 | 1016.4 | |
| 20260502123517 | -17 | 10 | 12.9 | 19.3 | 0.00 | 3.43 | 0.00 | 1016.2 | |
| 20260502123007 | -17 | 10 | 12.9 | 19.3 | 0.00 | 3.43 | 0.00 | 1016.1 | |
| 20260502122458 | -17 | 10 | 12.9 | 17.7 | 0.00 | 3.43 | 0.00 | 1016.0 | |
| 20260502121947 | -17 | 0 | 12.9 | 19.3 | 0.00 | 3.43 | 0.00 | 1015.9 | |
| 20260502121438 | -17 | 5 | 12.9 | 19.3 | 0.00 | 3.43 | 0.00 | 1015.7 | |
| 20260502120927 | -17 | 10 | 12.9 | 19.3 | 0.00 | 3.43 | 0.00 | 1015.6 | |
| 20260502120418 | -17 | 10 | 12.9 | 19.3 | 0.00 | 3.43 | 0.00 | 1015.5 | |
| 20260502120143 | -17 | 10 | 11.3 | 19.3 | 0.00 | 3.43 | 0.00 | 1015.4 | |
| 20260502115401 | -17 | 5 | 12.9 | 19.3 | 0.00 | 3.43 | 0.00 | 1015.4 | |
| 20260502114852 | -17 | 10 | 11.3 | 19.3 | 0.00 | 3.43 | 0.00 | 1015.3 | |
| 20260502114612 | -17 | 10 | 8.0 | 17.7 | 0.00 | 3.43 | 0.00 | 1015.3 | |
| 20260502113829 | -17 | 10 | 6.4 | 14.5 | 0.00 | 3.43 | 0.00 | 1015.3 | |
| 20260502113318 | -17 | 10 | 8.0 | 19.3 | 0.00 | 3.43 | 0.00 | 1015.3 | |
| 20260502112807 | -17 | 5 | 6.4 | 19.3 | 0.00 | 3.43 | 0.00 | 1015.2 | |
| 20260502112258 | -17 | 10 | 6.4 | 16.1 | 0.00 | 3.43 | 0.00 | 1015.1 | |
| 20260502111748 | -17 | 339 | 8.0 | 16.1 | 0.00 | 3.43 | 0.00 | 1015.1 | |
| 20260502111236 | -17 | 10 | 8.0 | 19.3 | 0.00 | 3.43 | 0.00 | 1015.0 | |
| 20260502110725 | -17 | 347 | 8.0 | 16.1 | 0.00 | 3.43 | 0.00 | 1014.8 | |
| 20260502110226 | -17 | 10 | 9.7 | 16.1 | 0.00 | 3.43 | 0.00 | 1014.7 | |
| 20260502105946 | -17 | 10 | 8.0 | 16.1 | 0.00 | 3.43 | 0.00 | 1014.7 | |
| 20260502105203 | -17 | 10 | 8.0 | 16.1 | 0.00 | 3.43 | 0.00 | 1014.7 | |
| 20260502104645 | -17 | 10 | 6.4 | 16.1 | 0.00 | 3.43 | 0.00 | 1014.6 | |
| 20260502104135 | -17 | 26 | 8.0 | 16.1 | 0.00 | 3.43 | 0.00 | 1014.5 | |
| 20260502103856 | -17 | 22 | 9.7 | 17.7 | 0.00 | 3.43 | 0.00 | 1014.4 | |
| 20260502103116 | -17 | 10 | 9.7 | 17.7 | 0.00 | 3.43 | 0.00 | 1014.3 | |
| 20260502102605 | -17 | 10 | 8.0 | 16.1 | 0.00 | 3.43 | 0.00 | 1014.2 | |
| 20260502102055 | -17 | 10 | 4.8 | 14.5 | 0.00 | 3.43 | 0.00 | 1014.0 | |
| 20260502101816 | -17 | 28 | 6.4 | 17.7 | 0.00 | 3.43 | 0.00 | 1013.9 | |
| 20260502101028 | -17 | 10 | 6.4 | 17.7 | 0.00 | 3.43 | 0.00 | 1013.8 | |
| 20260502100517 | -17 | 10 | 3.2 | 12.9 | 0.00 | 3.43 | 0.00 | 1013.7 | |
| 20260502091322 | -17 | 19 | 9.7 | 19.3 | 0.00 | 3.43 | 0.00 | 1013.8 | |
| 20260502090811 | -17 | 10 | 9.7 | 19.3 | 0.00 | 3.43 | 0.00 | 1013.8 | |
| 20260502090532 | -17 | 15 | 9.7 | 19.3 | 0.00 | 3.43 | 0.00 | 1013.6 | |
| 20260502071510 | -17 | 27 | 12.9 | 20.9 | 0.00 | 3.43 | 0.00 | 1012.8 | |
| 20260502071007 | -17 | 10 | 12.9 | 20.9 | 0.00 | 3.43 | 0.00 | 1012.8 | |
| 20260502070504 | -17 | 58 | 12.9 | 19.3 | 0.00 | 3.43 | 0.00 | 1013.0 | |
| 20260502065959 | -17 | 10 | 14.5 | 24.1 | 0.00 | 3.43 | 0.00 | 1013.1 | |
| 20260502065453 | -17 | 38 | 14.5 | 24.1 | 0.00 | 3.43 | 0.00 | 1013.1 | |
| 20260502064947 | -17 | 45 | 14.5 | 24.1 | 0.00 | 3.43 | 0.00 | 1013.2 | |
| 20260502064447 | -17 | 39 | 12.9 | 24.1 | 0.00 | 3.43 | 0.00 | 1013.2 | |
| 20260502063941 | -17 | 10 | 12.9 | 22.5 | 0.00 | 3.43 | 0.00 | 1013.1 | |
| 20260502063433 | -17 | 10 | 12.9 | 20.9 | 0.00 | 3.43 | 0.00 | 1013.0 | |
| 20260502062934 | -17 | 22 | 11.3 | 20.9 | 0.00 | 3.43 | 0.00 | 1013.1 | |
| 20260502062430 | -17 | 10 | 11.3 | 20.9 | 0.00 | 3.43 | 0.00 | 1013.0 | |
| 20260502061916 | -17 | 20 | 11.3 | 20.9 | 0.00 | 3.43 | 0.00 | 1012.9 | |
| 20260502061637 | -17 | 1 | 14.5 | 27.4 | 0.00 | 3.43 | 0.00 | 1012.9 | |
| 20260502060901 | -17 | 26 | 16.1 | 27.4 | 0.00 | 3.43 | 0.00 | 1012.9 | |
| 20260502060400 | -17 | 35 | 16.1 | 24.1 | 0.00 | 3.43 | 0.00 | 1012.7 | |
| 20260502055859 | -17 | 1 | 16.1 | 25.7 | 0.00 | 3.43 | 0.00 | 1012.6 | |
| 20260502055353 | -17 | 0 | 14.5 | 22.5 | 0.00 | 3.43 | 0.00 | 1012.5 | |
| 20260502054847 | -17 | 44 | 14.5 | 25.7 | 0.00 | 3.43 | 0.00 | 1012.4 | |
| 20260502054341 | -17 | 39 | 14.5 | 24.1 | 0.00 | 3.43 | 0.00 | 1012.4 | |
| 20260502053835 | -17 | 10 | 14.5 | 25.7 | 0.00 | 3.43 | 0.00 | 1012.4 | |
| 20260502053328 | -17 | 23 | 12.9 | 24.1 | 0.00 | 3.43 | 0.00 | 1012.4 | |
| 20260502052823 | -17 | 34 | 11.3 | 20.9 | 0.00 | 3.43 | 0.00 | 1012.4 | |
| 20260502052318 | -17 | 15 | 12.9 | 19.3 | 0.00 | 3.43 | 0.00 | 1012.3 | |
| 20260502051812 | -17 | 43 | 12.9 | 24.1 | 0.00 | 3.43 | 0.00 | 1012.4 | |
| 20260502051259 | -17 | 10 | 14.5 | 24.1 | 0.00 | 3.43 | 0.00 | 1012.2 | |
| 20260502050751 | -17 | 57 | 16.1 | 27.4 | 0.00 | 3.43 | 0.00 | 1012.3 | |
| 20260502050514 | -17 | 30 | 17.7 | 29.0 | 0.00 | 3.43 | 0.00 | 1012.1 | |
| 20260502045739 | -17 | 35 | 19.3 | 30.6 | 0.00 | 3.43 | 3.43 | 1012.1 | |
| 20260502045233 | -17 | 25 | 17.7 | 29.0 | 0.00 | 3.43 | 3.43 | 1011.9 | |
| 20260502044723 | -17 | 27 | 19.3 | 30.6 | 0.00 | 3.43 | 3.43 | 1011.9 | |
| 20260502044213 | -17 | 10 | 19.3 | 30.6 | 0.00 | 3.43 | 3.43 | 1011.8 | |
| 20260502043704 | -17 | 10 | 17.7 | 33.8 | 0.00 | 3.43 | 3.43 | 1011.7 | |
| 20260502043155 | -17 | 10 | 17.7 | 33.8 | 0.00 | 3.43 | 3.43 | 1011.6 | |
| 20260502042916 | -17 | 10 | 19.3 | 38.6 | 0.00 | 3.43 | 3.43 | 1011.5 | |
| 20260502042136 | -17 | 34 | 20.9 | 38.6 | 0.00 | 3.43 | 3.43 | 1011.4 | |
| 20260502041625 | -17 | 15 | 19.3 | 29.0 | 0.00 | 3.43 | 3.43 | 1011.3 | |
| 20260502041105 | -17 | 21 | 17.7 | 29.0 | 0.00 | 3.43 | 3.43 | 1011.3 | |
| 20260502040827 | -17 | 10 | 17.7 | 25.7 | 0.00 | 3.43 | 3.43 | 1011.3 | |
| 20260502040322 | -17 | 10 | 17.7 | 32.2 | 0.00 | 3.43 | 3.43 | 1011.4 | |
| 20260502035539 | -17 | 10 | 17.7 | 32.2 | 0.00 | 3.43 | 3.43 | 1011.3 | |
| 20260502035029 | -17 | 36 | 16.1 | 27.4 | 0.00 | 3.43 | 3.43 | 1011.3 | |
| 20260502034007 | -17 | 15 | 14.5 | 30.6 | 0.00 | 3.43 | 3.43 | 1011.0 | |
| 20260502033457 | -17 | 346 | 14.5 | 30.6 | 0.00 | 3.43 | 3.43 | 1011.1 | |
| 20260502033218 | -17 | 15 | 16.1 | 27.4 | 0.00 | 3.43 | 3.43 | 1011.2 | |
| 20260502032703 | -17 | 27 | 14.5 | 29.0 | 0.00 | 3.43 | 3.43 | 1011.2 | |
| 20260502031925 | -17 | 46 | 14.5 | 29.0 | 0.00 | 3.43 | 3.43 | 1011.2 | |
| 20260502031416 | -17 | 15 | 14.5 | 27.4 | 0.00 | 3.43 | 3.43 | 1011.0 | |
| 20260502031136 | -17 | 10 | 14.5 | 27.4 | 0.00 | 3.43 | 3.43 | 1010.7 | |
| 20260502030355 | -17 | 40 | 12.9 | 25.7 | 0.00 | 3.43 | 3.43 | 1010.7 | |
| 20260502025846 | -17 | 15 | 14.5 | 27.4 | 0.00 | 3.43 | 3.43 | 1010.6 | |
| 20260502025333 | -17 | 10 | 16.1 | 27.4 | 0.00 | 3.43 | 3.43 | 1010.4 | |
| 20260502024827 | -17 | 38 | 16.1 | 27.4 | 0.00 | 3.43 | 3.43 | 1010.4 | |
| 20260502024317 | -17 | 42 | 16.1 | 30.6 | 0.00 | 3.43 | 3.43 | 1010.2 | |
| 20260502023812 | -17 | 5 | 17.7 | 30.6 | 0.00 | 3.43 | 3.43 | 1010.3 | |
| 20260502023302 | -17 | 34 | 14.5 | 27.4 | 0.00 | 3.43 | 3.43 | 1010.0 | |
| 20260502022801 | -17 | 15 | 12.9 | 24.1 | 0.00 | 3.43 | 3.43 | 1010.1 | |
| 20260502022251 | -17 | 44 | 14.5 | 29.0 | 0.00 | 3.43 | 3.43 | 1009.8 | |
| 20260502021743 | -17 | 37 | 14.5 | 29.0 | 0.03 | 3.43 | 3.43 | 1009.7 | |
| 20260502021232 | -17 | 35 | 14.5 | 27.4 | 0.03 | 3.43 | 3.43 | 1009.8 | |
| 20260502020722 | -17 | 5 | 12.9 | 27.4 | 0.03 | 3.43 | 3.43 | 1009.6 | |
| 20260502020210 | -17 | 10 | 12.9 | 25.7 | 0.03 | 3.43 | 3.43 | 1009.4 | |
| 20260502015706 | -17 | 26 | 14.5 | 25.7 | 0.03 | 3.43 | 3.43 | 1009.4 | |
| 20260502015428 | -17 | 32 | 17.7 | 30.6 | 0.03 | 3.43 | 3.43 | 1009.2 | |
| 20260502014645 | -17 | 33 | 17.7 | 30.6 | 0.03 | 3.43 | 3.43 | 1009.0 | |
| 20260502014135 | -17 | 10 | 14.5 | 29.0 | 0.03 | 3.43 | 3.43 | 1009.1 | |
| 20260502013617 | -17 | 39 | 14.5 | 27.4 | 0.03 | 3.43 | 3.43 | 1009.0 | |
| 20260502013107 | -17 | 25 | 16.1 | 30.6 | 0.03 | 3.43 | 3.43 | 1008.8 | |
| 20260502012558 | -17 | 15 | 16.1 | 30.6 | 0.05 | 3.43 | 3.43 | 1008.8 | |
| 20260502012047 | -17 | 10 | 17.7 | 32.2 | 0.08 | 3.43 | 3.43 | 1008.8 | |
| 20260502011535 | -17 | 31 | 19.3 | 32.2 | 0.10 | 3.40 | 3.40 | 1008.6 | |
| 20260502011025 | -17 | 34 | 17.7 | 29.0 | 0.10 | 3.40 | 3.40 | 1008.6 | |
| 20260502010516 | -17 | 53 | 17.7 | 32.2 | 0.13 | 3.40 | 3.40 | 1008.7 | |
| 20260502010005 | -17 | 52 | 17.7 | 32.2 | 0.13 | 3.40 | 3.40 | 1008.5 | |
| 20260502005454 | -17 | 22 | 16.1 | 29.0 | 0.15 | 3.40 | 3.40 | 1008.4 | |
| 20260502004944 | -17 | 15 | 17.7 | 27.4 | 0.18 | 3.40 | 3.40 | 1008.3 | |
| 20260502004433 | -17 | 10 | 19.3 | 33.8 | 0.18 | 3.40 | 3.40 | 1008.3 | |
| 20260502003923 | -17 | 29 | 19.3 | 32.2 | 0.18 | 3.40 | 3.40 | 1008.3 | |
| 20260502003419 | -17 | 10 | 20.9 | 32.2 | 0.18 | 3.40 | 3.40 | 1008.2 | |
| 20260502002907 | -17 | 10 | 22.5 | 37.0 | 0.18 | 3.40 | 3.40 | 1008.2 | |
| 20260502002358 | -17 | 10 | 20.9 | 37.0 | 0.18 | 3.38 | 3.38 | 1008.2 | |
| 20260502001848 | -17 | 15 | 22.5 | 35.4 | 0.18 | 3.35 | 3.35 | 1008.1 | |
| 20260502001335 | -17 | 10 | 20.9 | 35.4 | 0.20 | 3.30 | 3.30 | 1008.0 | |
| 20260502000825 | -17 | 10 | 20.9 | 32.2 | 0.33 | 3.30 | 3.30 | 1007.9 | |
| 20260502000317 | -17 | 10 | 20.9 | 33.8 | 0.33 | 3.28 | 3.28 | 1007.9 | |
| 20260501235803 | -17 | 19 | 22.5 | 38.6 | 0.30 | 3.25 | 3.28 | 1007.7 | |
| 20260501235253 | -17 | 15 | 22.5 | 38.6 | 0.30 | 3.25 | 3.25 | 1007.5 | |
| 20260501234728 | -17 | 222 | 22.5 | 35.4 | 0.43 | 3.23 | 3.23 | 1007.2 | |
| 20260501234230 | -17 | 354 | 19.3 | 32.2 | 0.71 | 3.23 | 3.23 | 1007.3 | |
| 20260501233949 | -17 | 10 | 19.3 | 30.6 | 0.71 | 3.23 | 3.23 | 1007.3 | |
| 20260501233210 | -17 | 15 | 20.9 | 30.6 | 0.71 | 3.23 | 3.23 | 1007.1 | |
| 20260501232659 | -17 | 358 | 20.9 | 30.6 | 0.71 | 3.23 | 3.23 | 1007.1 | |
| 20260501232149 | -17 | 318 | 22.5 | 30.6 | 0.69 | 3.20 | 3.20 | 1007.0 | |
| 20260501231639 | -17 | 15 | 25.7 | 40.2 | 0.64 | 3.15 | 3.15 | 1006.7 | |
| 20260501231129 | -17 | 346 | 25.7 | 40.2 | 0.48 | 3.00 | 3.02 | 1007.0 | |
| 20260501230619 | -17 | 10 | 17.7 | 37.0 | 0.46 | 2.97 | 2.97 | 1006.5 | |
| 20260501230109 | -17 | 357 | 16.1 | 29.0 | 0.43 | 2.95 | 2.95 | 1005.6 | |
| 20260501225559 | -17 | 15 | 19.3 | 29.0 | 0.43 | 2.95 | 2.95 | 1004.8 | |
| 20260501225320 | -17 | 34 | 16.1 | 25.7 | 0.41 | 2.92 | 2.92 | 1004.2 | |
| 20260501224811 | -17 | 32 | 16.1 | 25.7 | 0.20 | 2.72 | 2.74 | 1004.5 | |
| 20260501224021 | -17 | 44 | 16.1 | 24.1 | 0.00 | 2.51 | 2.51 | 1005.1 | |
| 20260501223512 | -17 | 61 | 17.7 | 25.7 | 0.00 | 2.51 | 2.51 | 1004.6 | |
| 20260501223001 | -17 | 61 | 17.7 | 27.4 | 0.00 | 2.51 | 2.51 | 1004.7 | |
| 20260501222450 | -17 | 52 | 16.1 | 27.4 | 0.00 | 2.51 | 2.51 | 1004.9 | |
| 20260501221940 | -17 | 40 | 14.5 | 22.5 | 0.00 | 2.51 | 2.51 | 1005.3 | |
| 20260501221430 | -17 | 44 | 16.1 | 30.6 | 0.00 | 2.51 | 2.51 | 1005.2 | |
| 20260501220919 | -17 | 41 | 17.7 | 30.6 | 0.00 | 2.51 | 2.51 | 1005.1 | |
| 20260501220410 | -17 | 54 | 16.1 | 24.1 | 0.00 | 2.51 | 2.51 | 1005.2 | |
| 20260501215900 | -17 | 45 | 14.5 | 24.1 | 0.00 | 2.51 | 2.51 | 1005.3 | |
| 20260501215350 | -17 | 51 | 12.9 | 20.9 | 0.00 | 2.51 | 2.51 | 1005.5 | |
| 20260501214843 | -17 | 50 | 11.3 | 20.9 | 0.00 | 2.51 | 2.51 | 1005.5 | |
| 20260501214336 | -17 | 52 | 14.5 | 22.5 | 0.00 | 2.51 | 2.51 | 1005.7 | |
| 20260501213823 | -17 | 44 | 14.5 | 22.5 | 0.00 | 2.51 | 2.51 | 1005.9 | |
| 20260501213316 | -17 | 48 | 11.3 | 20.9 | 0.00 | 2.51 | 2.51 | 1006.2 | |
| 20260501212809 | -17 | 61 | 14.5 | 24.1 | 0.03 | 2.51 | 2.51 | 1006.2 | |
| 20260501211747 | -17 | 63 | 16.1 | 25.7 | 0.03 | 2.51 | 2.51 | 1005.9 | |
| 20260501211238 | -17 | 67 | 17.7 | 25.7 | 0.03 | 2.51 | 2.51 | 1005.9 | |
| 20260501211000 | -17 | 47 | 16.1 | 25.7 | 0.03 | 2.51 | 2.51 | 1005.9 | |
| 20260501210224 | -17 | 34 | 12.9 | 22.5 | 0.03 | 2.51 | 2.51 | 1005.8 | |
| 20260501205948 | -17 | 20 | 11.3 | 20.9 | 0.05 | 2.51 | 2.51 | 1006.0 | |
| 20260501205213 | -17 | 33 | 11.3 | 24.1 | 0.10 | 2.51 | 2.51 | 1006.0 | |
| 20260501204934 | -17 | 30 | 12.9 | 24.1 | 1.37 | 2.51 | 2.51 | 1005.9 | |
| 20260501204431 | -17 | 51 | 12.9 | 27.4 | 2.44 | 2.51 | 2.51 | 1006.0 | |
| 20260501203653 | -17 | 24 | 14.5 | 27.4 | 2.46 | 2.51 | 2.51 | 1005.7 | |
| 20260501203148 | -17 | 15 | 16.1 | 29.0 | 2.46 | 2.51 | 2.51 | 1005.9 | |
| 20260501202646 | -17 | 10 | 14.5 | 29.0 | 2.44 | 2.49 | 2.49 | 1005.9 | |
| 20260501202134 | -17 | 59 | 11.3 | 29.0 | 2.44 | 2.49 | 2.49 | 1006.6 | |
| 20260501201627 | -17 | 338 | 11.3 | 29.0 | 2.44 | 2.49 | 2.49 | 1006.7 | |
| 20260501201124 | -17 | 23 | 16.1 | 41.8 | 2.44 | 2.49 | 2.49 | 1006.0 | |
| 20260501200851 | -17 | 102 | 20.9 | 41.8 | 2.44 | 2.49 | 2.49 | 1004.7 | |
| 20260501200114 | -17 | 338 | 27.4 | 54.7 | 2.41 | 2.46 | 2.46 | 1003.8 | |
| 20260501195611 | -17 | 38 | 35.4 | 54.7 | 2.41 | 2.46 | 2.46 | 1002.1 | |
| 20260501195109 | -17 | 57 | 35.4 | 80.5 | 2.26 | 2.31 | 2.31 | 1002.4 | |
| 20260501194605 | -17 | 50 | 30.6 | 80.5 | 0.58 | 0.64 | 0.99 | 1002.4 | |
| 20260501194100 | -17 | 269 | 24.1 | 41.8 | 0.00 | 0.05 | 0.08 | 1008.4 | |
| 20260501193552 | -17 | 265 | 20.9 | 37.0 | 0.00 | 0.05 | 0.05 | 1007.2 | |
| 20260501193045 | -17 | 25 | 24.1 | 33.8 | 0.00 | 0.05 | 0.05 | 1001.4 | |
| 20260501192538 | -17 | 65 | 24.1 | 33.8 | 0.00 | 0.05 | 0.05 | 1000.7 | |
| 20260501192033 | -17 | 77 | 20.9 | 33.8 | 0.00 | 0.05 | 0.05 | 1000.3 | |
| 20260501191522 | -17 | 77 | 19.3 | 25.7 | 0.00 | 0.05 | 0.05 | 1002.6 | |
| 20260501191015 | -17 | 33 | 20.9 | 27.4 | 0.00 | 0.05 | 0.05 | 1003.3 | |
| 20260501190506 | -17 | 67 | 20.9 | 27.4 | 0.00 | 0.05 | 0.05 | 1003.4 | |
| 20260501190001 | -17 | 61 | 19.3 | 25.7 | 0.00 | 0.05 | 0.05 | 1003.9 | |
| 20260501184949 | -17 | 65 | 17.7 | 24.1 | 0.00 | 0.05 | 0.05 | 1004.2 | |
| 20260501184721 | -17 | 49 | 16.1 | 24.1 | 0.00 | 0.05 | 0.05 | 1004.5 | |
| 20260501184214 | -17 | 46 | 16.1 | 24.1 | 0.00 | 0.05 | 0.05 | 1005.1 |